Weather History for KDEH - December, 2013

Change the Weather History Date:

Friday, December 6, 2013

  Actual Average Record
Temperature  
Mean Temperature 6 °F -  
Max Temperature 12 °F 31 °F 53 °F (1951)
Min Temperature 0 °F 15 °F -12 °F (1977)
Degree Days  
Heating Degree Days 59    
Moisture  
Dew Point -4 °F    
Average Humidity 66    
Maximum Humidity 72    
Minimum Humidity 53    
Precipitation  
Precipitation 0.00 in - - ()
Sea Level Pressure  
Sea Level Pressure 30.44 in    
Wind  
Wind Speed 9 mph (NW)    
Max Wind Speed 16 mph    
Max Gust Speed 20 mph    
Visibility 10 miles    
Events Snow    
Averages and records for this station are not official NWS values.
T = Trace of Precipitation, MM = Missing Value Source: NWS Daily Summary

Daily Weather History Graph

Daily Weather History Graph

Search for Another Location

Airport or City:

Trip Planner

Search our weather history database for the weather conditions in past years. The results will help you decide how hot, cold, wet, or windy it might be!

Date:

Astronomy

Dec. 06, 2013 Rise Set
Actual Time 7:24 AM CST 4:31 PM CST
Civil Twilight 6:52 AM CST 5:03 PM CST
Nautical Twilight 6:16 AM CST 5:39 PM CST
Astronomical Twilight 5:42 AM CST 6:13 PM CST
Moon 10:26 AM CST (12/6) 9:08 PM CST (12/6)
Length of Visible Light 10h 11m
Length of Day
9h 06m
Waxing Crescent, 19% of the Moon is Illuminated
Dec 6
Waxing Crescent
Dec 9
First Quarter
Dec 17
Full
Dec 25
Last Quarter
Jan 1
New

Hourly Weather History & Observations

Time (CST) Temp. Windchill Dew Point Humidity Pressure Visibility Wind Dir Wind Speed Gust Speed Precip Events Conditions
12:15 AM 5.0 °F -9.1 °F -2.2 °F 72% 30.29 in 10.0 mi WNW 9.2 mph 16.1 mph N/A   Scattered Clouds
5:55 AM 1.4 °F -11.3 °F -5.8 °F 72% 30.35 in 10.0 mi WNW 6.9 mph - N/A   Clear
6:15 AM 1.4 °F -11.3 °F -5.8 °F 72% 30.36 in 10.0 mi WNW 6.9 mph - N/A   Clear
6:35 AM 1.4 °F -13.5 °F -5.8 °F 72% 30.37 in 10.0 mi WNW 9.2 mph - N/A   Clear
6:55 AM 1.4 °F -11.3 °F -5.8 °F 72% 30.36 in 10.0 mi WNW 6.9 mph - N/A   Clear
7:15 AM 1.4 °F -11.3 °F -5.8 °F 72% 30.37 in 10.0 mi Variable 6.9 mph - N/A   Clear
7:35 AM 1.4 °F -11.3 °F -5.8 °F 72% 30.38 in 10.0 mi Variable 6.9 mph 15.0 mph N/A   Clear
7:55 AM 1.4 °F -11.3 °F -7.6 °F 66% 30.40 in 10.0 mi Variable 6.9 mph - N/A   Clear
8:15 AM 1.4 °F -13.5 °F -5.8 °F 72% 30.39 in 10.0 mi WNW 9.2 mph - N/A   Clear
8:35 AM 1.4 °F -13.5 °F -7.6 °F 66% 30.39 in 10.0 mi NW 9.2 mph 16.1 mph N/A   Clear
8:55 AM 1.4 °F -13.5 °F -5.8 °F 72% 30.38 in 10.0 mi NW 9.2 mph 17.3 mph N/A   Clear
9:15 AM 3.2 °F -12.2 °F -5.8 °F 66% 30.39 in 10.0 mi NNW 10.4 mph - N/A   Clear
9:35 AM 3.2 °F -7.8 °F -5.8 °F 66% 30.42 in 10.0 mi NW 5.8 mph 12.7 mph N/A   Partly Cloudy
9:55 AM 5.0 °F -6.9 °F -4.0 °F 66% 30.43 in 10.0 mi WNW 6.9 mph 13.8 mph N/A   Scattered Clouds
10:15 AM 5.0 °F -11.6 °F -4.0 °F 66% 30.43 in 10.0 mi NW 12.7 mph - N/A   Partly Cloudy
10:35 AM 6.8 °F -5.9 °F -4.0 °F 61% 30.42 in 10.0 mi NW 8.1 mph 15.0 mph N/A   Mostly Cloudy
10:55 AM 6.8 °F -3.5 °F -4.0 °F 61% 30.43 in 10.0 mi NW 5.8 mph 13.8 mph N/A   Mostly Cloudy
11:15 AM 8.6 °F -4.7 °F -2.2 °F 62% 30.42 in 10.0 mi NW 9.2 mph - N/A   Mostly Cloudy
11:35 AM 8.6 °F -4.7 °F -2.2 °F 62% 30.42 in 10.0 mi NNW 9.2 mph - N/A   Mostly Cloudy
11:55 AM 8.6 °F -5.5 °F -0.4 °F 67% 30.41 in 10.0 mi North 10.4 mph 16.1 mph N/A Snow Light Snow
12:15 PM 8.6 °F -4.7 °F -0.4 °F 67% 30.41 in 10.0 mi North 9.2 mph - N/A   Overcast
12:35 PM 10.4 °F -4.1 °F -0.4 °F 62% 30.41 in 10.0 mi NNW 11.5 mph - N/A   Mostly Cloudy
12:55 PM 10.4 °F -6.6 °F -0.4 °F 62% 30.40 in 10.0 mi NNW 16.1 mph - N/A Snow Light Snow
1:15 PM 10.4 °F -5.4 °F -0.4 °F 62% 30.40 in 10.0 mi NNW 13.8 mph - N/A Snow Light Snow
1:35 PM 12.2 °F -1.0 °F -0.4 °F 57% 30.40 in 10.0 mi NNW 10.4 mph - N/A   Mostly Cloudy
1:55 PM 12.2 °F -2.5 °F -0.4 °F 57% 30.40 in 10.0 mi NNW 12.7 mph - N/A   Mostly Cloudy
2:15 PM 12.2 °F -3.7 °F -0.4 °F 57% 30.40 in 10.0 mi NNW 15.0 mph - N/A Snow Light Snow
2:35 PM 12.2 °F -3.1 °F -0.4 °F 57% 30.41 in 10.0 mi NNW 13.8 mph - N/A Snow Light Snow
2:55 PM 12.2 °F -1.0 °F -2.2 °F 53% 30.41 in 10.0 mi NNW 10.4 mph 17.3 mph N/A Snow Light Snow
3:15 PM 12.2 °F -2.5 °F -0.4 °F 57% 30.42 in 10.0 mi NW 12.7 mph - N/A   Scattered Clouds
3:35 PM 12.2 °F -0.2 °F -0.4 °F 57% 30.43 in 10.0 mi North 9.2 mph - N/A   Mostly Cloudy
3:55 PM 10.4 °F -0.4 °F -2.2 °F 57% 30.44 in 10.0 mi NNW 6.9 mph - N/A   Mostly Cloudy
4:15 PM 10.4 °F -2.4 °F -2.2 °F 57% 30.44 in 10.0 mi NNW 9.2 mph - N/A   Scattered Clouds
4:35 PM 10.4 °F -0.4 °F -2.2 °F 57% 30.44 in 10.0 mi NW 6.9 mph - N/A   Partly Cloudy
4:55 PM 8.6 °F 0.1 °F -2.2 °F 62% 30.45 in 10.0 mi NW 4.6 mph - N/A   Scattered Clouds
6:15 PM 6.8 °F -5.9 °F -0.4 °F 72% 30.47 in 10.0 mi WNW 8.1 mph - N/A   Scattered Clouds
6:35 PM 6.8 °F -4.8 °F -0.4 °F 72% 30.47 in 10.0 mi NW 6.9 mph - N/A   Partly Cloudy
6:55 PM 6.8 °F -3.5 °F -0.4 °F 72% 30.48 in 10.0 mi Variable 5.8 mph - N/A   Clear
7:15 PM 6.8 °F -4.8 °F -0.4 °F 72% 30.48 in 10.0 mi Variable 6.9 mph 13.8 mph N/A   Partly Cloudy
7:35 PM 6.8 °F -2.0 °F -0.4 °F 72% 30.50 in 10.0 mi WNW 4.6 mph - N/A   Scattered Clouds
7:55 PM 5.0 °F -9.1 °F -2.2 °F 72% 30.51 in - WNW 9.2 mph - N/A   Partly Cloudy
8:15 PM 5.0 °F -8.1 °F -2.2 °F 72% 30.51 in 10.0 mi WNW 8.1 mph - N/A   Clear
8:35 PM 5.0 °F -5.6 °F -4.0 °F 66% 30.52 in 10.0 mi Variable 5.8 mph 11.5 mph N/A   Clear
8:55 PM 3.2 °F -12.2 °F -5.8 °F 66% 30.53 in 10.0 mi NW 10.4 mph 19.6 mph N/A   Clear
9:15 PM 3.2 °F -13.9 °F -5.8 °F 66% 30.53 in 10.0 mi NW 12.7 mph - N/A   Clear
9:35 PM 3.2 °F -10.3 °F -5.8 °F 66% 30.53 in 10.0 mi NW 8.1 mph 16.1 mph N/A   Clear
9:55 PM 1.4 °F -15.3 °F -7.6 °F 66% 30.54 in 10.0 mi NW 11.5 mph - N/A   Clear
10:15 PM 1.4 °F -12.5 °F -7.6 °F 66% 30.55 in 10.0 mi NW 8.1 mph - N/A   Clear
10:35 PM 1.4 °F -11.3 °F -5.8 °F 72% 30.56 in 10.0 mi WNW 6.9 mph - N/A   Clear
11:15 PM 1.4 °F -14.5 °F -7.6 °F 66% 30.56 in 10.0 mi NW 10.4 mph - N/A   Clear
11:35 PM -0.4 °F -14.7 °F -7.6 °F 72% 30.57 in 10.0 mi WNW 8.1 mph - N/A   Clear
11:55 PM -0.4 °F -16.7 °F -7.6 °F 72% 30.58 in 10.0 mi NW 10.4 mph - N/A   Clear